User: anonymous   Login
Location: Unspecified
(0.0000°N, 0.0000°E)
Time: 02:50:53
(UTC+00:00)
Language:

SWAYAM - Orbit

View from above orbital plane
View from above orbital plane
View from above satellite
View from above satellite

Ground track
Ground track

The orbit data is extracted from the following two-line orbital elements,

1 41607U 16040J   18173.84062475  .00001418  00000-0  64607-4 0  9996
2 41607  97.4126 236.7497 0012832 212.5438 147.5008 15.22252067110962
Epoch (UTC): 22 June 2018 20:10:29
Eccentricity: 0.0012832
inclination: 97.4126°
perigee height: 490 km
apogee height: 508 km
right ascension of ascending node: 236.7497°
argument of perigee: 212.5438°
revolutions per day: 15.22252067
mean anomaly at epoch: 147.5008°
orbit number at epoch: 11096

The dashed part of the orbit path shows where the satellite is in the earth's shadow,  

DLR